Location: Cutler
(25.6150°N, 80.3110°W)
Time: 10:59:20
(UTC-05:00)

Tiangong 1 - Visible Passes

Search period start: 25 February 2018 00:00
Search period end: 07 March 2018 00:00
Orbit: 245 x 266 km, 42.8° (Epoch: 25 February)

Date Brightness Start Highest point End Pass type
(mag) Time Alt. Az. Time Alt. Az. Time Alt. Az.
25 Feb 2.4 19:25:29 10° SSW 19:26:26 17° S 19:26:26 17° S visible
26 Feb 0.4 19:17:39 10° SW 19:19:51 48° SE 19:20:04 45° ESE visible
27 Feb 0.4 19:09:51 10° WSW 19:12:07 67° NW 19:13:20 23° NE visible
28 Feb 1.9 19:02:01 10° W 19:04:05 30° NW 19:06:10 10° NNE visible
01 Mar 2.8 18:54:10 10° WNW 18:55:48 17° NNW 18:57:26 10° NNE visible
02 Mar 3.3 18:46:34 10° NW 18:47:15 11° NNW 18:47:56 10° N visible
